Weather History for Harrison, AR

Change the Weather History Date:

Friday, March 15, 2013

  Actual Average Record
Temperature  
Mean Temperature 71 °F 48 °F  
Max Temperature 81 °F 60 °F 81 °F (1942)
Min Temperature 60 °F 37 °F 16 °F (1909)
Degree Days  
Heating Degree Days 0 17  
Month to date heating degree days 324 282  
Since 1 July heating degree days 3228 3454  
Cooling Degree Days 6 0  
Month to date cooling degree days 6 0  
Year to date cooling degree days 7 0  
Growing Degree Days 20 (Base 50)    
Moisture  
Dew Point 40 °F    
Average Humidity 36    
Maximum Humidity 51    
Minimum Humidity 20    
Precipitation  
Precipitation 0.00 in 0.12 in 0.93 in (2002)
Month to date precipitation 1.36 1.71  
Year to date precipitation 7.98 6.91  
Snow  
Snow 0.00 in 0.10 in 6.00 in (1978)
Month to date snowfall 0.3 1.5  
Since 1 July snowfall 3.1 10.7  
Snow Depth 0.00 in    
Sea Level Pressure  
Sea Level Pressure 29.92 in    
Wind  
Wind Speed 12 mph (SW)    
Max Wind Speed 22 mph    
Max Gust Speed 32 mph    
Visibility 9 miles    
Events      
T = Trace of Precipitation, MM = Missing Value Source: NWS Daily Summary

Daily Weather History Graph

Daily Weather History Graph

Search for Another Location

Airport:

Trip Planner

Search our weather history database for the weather conditions in past years. The results will help you decide how hot, cold, wet, or windy it might be!

Date:

Astronomy

Mar. 15, 2013 Rise Set
Actual Time 7:23 AM CDT 7:20 PM CDT
Civil Twilight 6:57 AM CDT 7:45 PM CDT
Nautical Twilight 6:27 AM CDT 8:15 PM CDT
Astronomical Twilight 5:57 AM CDT 8:46 PM CDT
Moon 9:21 AM CDT (3/15) 11:26 PM CDT (3/15)
Length of Visible Light 12h 48m
Length of Day
11h 57m
Waxing Crescent, 15% of the Moon is Illuminated
Mar 15
Waxing Crescent
Mar 19
First Quarter
Mar 27
Full
Apr 2
Last Quarter
Apr 10
New

Hourly Weather History & Observations

Time (CDT) Temp. Dew Point Humidity Pressure Visibility Wind Dir Wind Speed Gust Speed Precip Events Conditions
12:53 AM 62.1 °F 39.9 °F 44% 30.08 in 10.0 mi WSW 12.7 mph - N/A   Clear
1:53 AM 63.0 °F 41.0 °F 45% 30.07 in 10.0 mi WSW 13.8 mph 23.0 mph N/A   Clear
2:53 AM 63.0 °F 41.0 °F 45% 30.06 in 10.0 mi WSW 11.5 mph - N/A   Clear
3:53 AM 62.1 °F 41.0 °F 46% 30.04 in 10.0 mi WSW 11.5 mph 21.9 mph N/A   Clear
4:53 AM 61.0 °F 42.1 °F 50% 30.04 in 10.0 mi WSW 9.2 mph 17.3 mph N/A   Clear
5:53 AM 60.1 °F 42.1 °F 51% 30.03 in 10.0 mi WSW 8.1 mph - N/A   Clear
6:53 AM 61.0 °F 42.1 °F 50% 30.03 in 10.0 mi WSW 9.2 mph - N/A   Clear
7:53 AM 62.1 °F 42.1 °F 48% 30.02 in 10.0 mi SW 11.5 mph 21.9 mph N/A   Clear
8:53 AM 64.9 °F 42.1 °F 43% 30.01 in 10.0 mi WSW 10.4 mph 19.6 mph N/A   Clear
9:53 AM 70.0 °F 41.0 °F 35% 29.99 in 10.0 mi WSW 11.5 mph 21.9 mph N/A   Clear
10:53 AM 73.0 °F 39.9 °F 30% 29.96 in 10.0 mi WSW 12.7 mph 23.0 mph N/A   Clear
11:53 AM 78.1 °F 39.9 °F 25% 29.94 in 10.0 mi West 10.4 mph 17.3 mph N/A   Clear
12:53 PM 79.0 °F 39.0 °F 24% 29.93 in 10.0 mi West 16.1 mph 23.0 mph N/A   Clear
1:53 PM 80.1 °F 36.0 °F 20% 29.89 in 10.0 mi SW 16.1 mph 26.5 mph N/A   Clear
2:53 PM 80.1 °F 36.0 °F 20% 29.86 in 10.0 mi SW 16.1 mph 24.2 mph N/A   Clear
3:53 PM 79.0 °F 37.0 °F 22% 29.83 in 5.0 mi SW 17.3 mph 28.8 mph N/A   Haze
4:21 PM 78.8 °F 37.4 °F 23% 29.86 in 3.0 mi SW 12.7 mph 20.7 mph N/A   Haze
4:51 PM 77.0 °F 37.4 °F 24% 29.85 in 7.0 mi SSW 12.7 mph 25.3 mph N/A   Scattered Clouds
4:53 PM 77.0 °F 37.0 °F 24% 29.81 in 8.0 mi SW 18.4 mph 25.3 mph N/A   Partly Cloudy
5:53 PM 77.0 °F 37.0 °F 24% 29.80 in 10.0 mi WSW 16.1 mph 24.2 mph N/A   Clear
6:53 PM 73.9 °F 39.0 °F 28% 29.80 in 10.0 mi SSW 10.4 mph 23.0 mph N/A   Clear
7:53 PM 71.1 °F 39.0 °F 31% 29.81 in 10.0 mi SW 8.1 mph - N/A   Clear
8:53 PM 71.1 °F 39.9 °F 32% 29.80 in 10.0 mi SW 8.1 mph - N/A   Clear
9:53 PM 69.1 °F 39.9 °F 35% 29.80 in 10.0 mi SSW 8.1 mph - N/A   Clear
10:53 PM 69.1 °F 44.1 °F 40% 29.78 in 10.0 mi SW 11.5 mph 17.3 mph N/A   Clear
11:53 PM 66.9 °F 43.0 °F 42% 29.77 in 10.0 mi SW 9.2 mph 21.9 mph N/A   Clear